Location: Axtheid
(49.6213°N, 11.8205°E)
Time: 01:03:05
(UTC+00:00)

Cosmos 1758 Rocket - Visible Passes

Search period start: 11 May 2021 00:00
Search period end: 21 May 2021 00:00
Orbit: 603 x 635 km, 82.5° (Epoch: 10 May)

Date Brightness Start Highest point End Pass type
(mag) Time Alt. Az. Time Alt. Az. Time Alt. Az.
11 May 7.2 02:59:30 10° E 02:59:49 10° E 03:00:08 10° ENE visible
15 May 6.9 02:30:10 10° E 02:31:11 11° E 02:32:11 10° ENE visible
16 May 6.4 02:45:07 10° SE 02:48:09 18° E 02:51:13 10° NE visible
19 May 6.7 02:01:11 10° E 02:02:32 11° E 02:03:54 10° ENE visible
20 May 6.2 02:16:22 10° SE 02:19:31 19° E 02:22:42 10° NE visible
